TimeEST,TemperatureF,Dew PointF,Humidity,Sea Level PressureIn,VisibilityMPH,Wind Direction,Wind SpeedMPH,Gust SpeedMPH,PrecipitationIn,Events,Conditions,WindDirDegrees,DateUTC
12:56 AM,28.0,23.0,81,29.94,7.0,North,5.8,-,N/A,,Overcast,10,2013-02-13 05:56:00
1:56 AM,27.1,23.0,84,29.92,6.0,North,3.5,-,N/A,,Clear,10,2013-02-13 06:56:00
2:56 AM,26.1,23.0,88,29.92,5.0,North,6.9,-,N/A,,Clear,350,2013-02-13 07:56:00
3:56 AM,25.2,22.1,88,29.90,5.0,North,6.9,-,N/A,,Scattered Clouds,10,2013-02-13 08:56:00
4:35 AM,24.8,21.2,86,29.87,5.0,North,5.8,-,N/A,,Mostly Cloudy,10,2013-02-13 09:35:00
4:44 AM,24.8,21.2,86,29.87,5.0,North,6.9,-,N/A,,Mostly Cloudy,360,2013-02-13 09:44:00
4:56 AM,25.2,23.0,91,29.89,4.0,North,10.4,-,N/A,,Overcast,350,2013-02-13 09:56:00
5:04 AM,24.8,23.0,93,29.86,3.0,North,6.9,-,N/A,,Overcast,10,2013-02-13 10:04:00
5:49 AM,26.6,23.0,86,29.84,4.0,NNE,6.9,-,N/A,,Overcast,20,2013-02-13 10:49:00
5:56 AM,26.1,22.1,85,29.87,4.0,NNE,6.9,-,N/A,,Overcast,30,2013-02-13 10:56:00
6:56 AM,26.1,23.0,88,29.83,5.0,NNE,6.9,-,N/A,,Overcast,20,2013-02-13 11:56:00
7:56 AM,26.1,22.1,85,29.82,4.0,NNE,5.8,-,N/A,,Overcast,30,2013-02-13 12:56:00
8:32 AM,26.6,21.2,80,29.80,5.0,NE,5.8,-,N/A,,Haze,40,2013-02-13 13:32:00
8:56 AM,27.1,23.0,84,29.83,4.0,North,6.9,-,N/A,,Clear,360,2013-02-13 13:56:00
9:47 AM,26.6,21.2,80,29.84,5.0,NNW,5.8,-,N/A,,Haze,340,2013-02-13 14:47:00
9:56 AM,27.1,22.1,81,29.87,5.0,North,4.6,-,N/A,,Haze,350,2013-02-13 14:56:00
10:46 AM,28.4,21.2,74,29.83,5.0,North,5.8,-,N/A,,Haze,10,2013-02-13 15:46:00
10:56 AM,28.0,22.1,78,29.86,5.0,North,4.6,-,N/A,,Haze,360,2013-02-13 15:56:00
11:10 AM,28.4,21.2,74,29.83,5.0,Calm,Calm,-,N/A,,Haze,0,2013-02-13 16:10:00
11:37 AM,28.4,21.2,74,29.82,5.0,Calm,Calm,-,N/A,,Haze,0,2013-02-13 16:37:00
11:56 AM,28.0,22.1,78,29.85,5.0,Calm,Calm,-,0.00,,Haze,0,2013-02-13 16:56:00
12:56 PM,29.1,23.0,78,29.81,5.0,NNW,6.9,-,N/A,,Haze,330,2013-02-13 17:56:00
1:56 PM,29.1,24.1,81,29.81,4.0,WNW,9.2,-,N/A,,Haze,290,2013-02-13 18:56:00
2:56 PM,30.0,23.0,75,29.81,6.0,WNW,10.4,-,N/A,,Haze,290,2013-02-13 19:56:00
3:15 PM,30.2,23.0,75,29.77,6.0,WNW,10.4,-,N/A,,Haze,290,2013-02-13 20:15:00
3:56 PM,30.0,23.0,75,29.82,5.0,WNW,6.9,-,N/A,,Haze,290,2013-02-13 20:56:00
4:56 PM,32.0,23.0,69,29.82,6.0,West,5.8,-,N/A,,Haze,260,2013-02-13 21:56:00
5:56 PM,30.0,23.0,75,29.84,6.0,WSW,5.8,-,N/A,,Haze,250,2013-02-13 22:56:00
6:56 PM,27.1,21.0,78,29.86,7.0,SW,4.6,-,N/A,,Clear,220,2013-02-13 23:56:00
7:56 PM,28.0,22.1,78,29.89,7.0,SSW,9.2,-,N/A,,Clear,210,2013-02-14 00:56:00
8:56 PM,27.1,24.1,88,29.89,5.0,SW,9.2,-,N/A,,Clear,220,2013-02-14 01:56:00
9:56 PM,27.1,24.1,88,29.91,4.0,SSW,9.2,-,N/A,,Clear,210,2013-02-14 02:56:00
10:56 PM,27.1,24.1,88,29.91,4.0,SSW,8.1,-,N/A,,Clear,210,2013-02-14 03:56:00
11:56 PM,27.1,24.1,88,29.91,4.0,SW,9.2,-,N/A,,Clear,220,2013-02-14 04:56:00